Starlink 2354

operational
NORAD ID: 47894 Int'l Des: 2021-021 Owner: SPXS Country: US Constellation: starlink
LEOCIRCULAR

About Starlink 2354

Description loading...

Live Position

Loading 3D Globe...

Upcoming Passes

Altitude History

Altitude vs Time

uPlot chart will show altitude changes over time

Two-Line Element Set

1 47894U 21021AL 26063.05801130 .00020442 00000-0 71402-3 0 9992
2 47894 53.1521 294.2705 0001340 108.2122 251.9024 15.29572541275327
Epoch: Mar 4, 2026 • Age: 19 hours

Current Status

Altitude 476.8 km
Velocity 7.63 km/s
Sub-Earth Point 6.73°N, 12.35°E
Launch Date Mar 14, 2021
Age 4.9 years
Type internet

Technical Details

Classification Payload
Mass 260.00 kg
Dry Mass 248.00 kg
Total Mass 260.00 kg
Length 0.20 m
Diameter 2.80 m
Span 9.00 m
Shape Box + pan
Manufacturer SPXS
Bus Type Starlink
Phase Status In Orbit
Owner/State SPXS/US

Large Constellations

Loading constellations...